Gwinn, MI

3:29 PM EST on November 21, 2017 (GMT -0500)
Sawyer International

Weather History for KSAW - February, 2012

Change the Weather History Date:

Friday, February 24, 2012

  Actual Average (KESC) Record (KESC)
Temperature  
Mean Temperature 26 °F -  
Max Temperature 28 °F 28 °F 42 °F (1957)
Min Temperature 22 °F 11 °F -7 °F (1997)
Degree Days  
Heating Degree Days 40    
Moisture  
Dew Point 22 °F    
Average Humidity 85    
Maximum Humidity 93    
Minimum Humidity 69    
Precipitation  
Precipitation 0.00 in - - ()
Sea Level Pressure  
Sea Level Pressure 29.63 in    
Wind  
Wind Speed 4 mph (NNW)    
Max Wind Speed 22 mph    
Max Gust Speed 25 mph    
Visibility 7 miles    
Events Snow    
Averages and records for this station are not official NWS values.
T = Trace of Precipitation, MM = Missing Value Source: NWS Daily Summary

Daily Weather History Graph

Daily Weather History Graph

Search for Another Location

Airport or City:

Trip Planner

Search our weather history database for the weather conditions in past years. The results will help you decide how hot, cold, wet, or windy it might be!

Date:

Astronomy

Feb. 24, 2012 Rise Set
Actual Time 7:38 AM EST 6:27 PM EST
Civil Twilight 7:08 AM EST 6:58 PM EST
Nautical Twilight 6:33 AM EST 7:33 PM EST
Astronomical Twilight 5:58 AM EST 8:08 PM EST
Moon 8:20 AM EST (2/24) 9:46 PM EST (2/24)
Length of Visible Light 11h 50m
Length of Day
10h 49m
Waxing Crescent, 7% of the Moon is Illuminated
Feb 24
Waxing Crescent
Feb 29
First Quarter
Mar 8
Full
Mar 14
Last Quarter
Mar 22
New

Hourly Weather History & Observations

Time (EST) Temp. Windchill Dew Point Humidity Pressure Visibility Wind Dir Wind Speed Gust Speed Precip Events Conditions
12:16 AM 27.5 °F - 24.8 °F 90% 29.63 in 7.0 mi Calm Calm - N/A Snow Light Snow
12:37 AM 27.5 °F - 25.0 °F 90% 29.63 in 10.0 mi Calm Calm - N/A   Overcast
12:57 AM 27.5 °F - 24.8 °F 90% 29.63 in 10.0 mi Calm Calm - N/A Snow Light Snow
1:16 AM 27.5 °F - 24.8 °F 90% 29.63 in 7.0 mi Calm Calm - N/A Snow Light Snow
1:37 AM 27.5 °F - 24.8 °F 90% 29.63 in 5.0 mi Calm Calm - N/A Snow Light Snow
1:57 AM 27.3 °F - 24.4 °F 89% 29.63 in 5.0 mi Calm Calm - N/A Snow Light Snow
2:16 AM 27.1 °F - 23.9 °F 88% 29.62 in 7.0 mi Calm Calm - N/A Snow Light Snow
2:37 AM 26.2 °F - 23.4 °F 89% 29.62 in 10.0 mi Calm Calm - N/A   Overcast
2:57 AM 25.9 °F - 23.4 °F 90% 29.62 in 10.0 mi Calm Calm - N/A   Overcast
3:16 AM 25.7 °F - 23.0 °F 89% 29.61 in 10.0 mi Calm Calm - N/A   Overcast
3:37 AM 25.5 °F - 23.0 °F 90% 29.60 in 7.0 mi Calm Calm - N/A Snow Light Snow
3:57 AM 25.3 °F - 23.0 °F 91% 29.60 in 5.0 mi Calm Calm - N/A Snow Light Snow
4:17 AM 24.6 °F - 22.3 °F 91% 29.60 in 5.0 mi Calm Calm - N/A Snow Light Snow
4:37 AM 25.7 °F - 23.7 °F 92% 29.59 in 7.0 mi Calm Calm - N/A Snow Light Snow
4:56 AM 26.1 °F - 23.9 °F 92% 29.59 in 5.0 mi Calm Calm - N/A Snow Light Snow
5:17 AM 26.6 °F - 23.9 °F 90% 29.59 in 10.0 mi Calm Calm - N/A   Overcast
5:37 AM 26.2 °F 18.6 °F 23.5 °F 90% 29.59 in 10.0 mi North 6.9 mph - N/A   Overcast
5:57 AM 25.7 °F 18.0 °F 23.0 °F 89% 29.58 in 10.0 mi NNW 6.9 mph - N/A   Scattered Clouds
6:50 AM 24.8 °F - 21.2 °F 86% 29.58 in 10.0 mi Calm Calm - N/A   Mostly Cloudy
7:50 AM 24.8 °F - 21.2 °F 86% 29.58 in 10.0 mi Calm Calm - N/A   Mostly Cloudy
8:50 AM 24.8 °F - 23.0 °F 93% 29.59 in 2.0 mi Calm Calm - N/A Snow Light Snow
9:50 AM 26.6 °F 17.5 °F 21.2 °F 80% 29.58 in 10.0 mi North 9.2 mph - N/A   Overcast
10:50 AM 26.6 °F 15.7 °F 21.2 °F 80% 29.58 in 1.8 mi NNW 12.7 mph 18.4 mph N/A Snow Light Snow
11:50 AM 26.6 °F 13.8 °F 23.0 °F 86% 29.56 in 0.8 mi North 17.3 mph 25.3 mph N/A Snow Snow
12:50 PM 28.4 °F 14.7 °F 23.0 °F 80% 29.57 in 1.8 mi North 21.9 mph - N/A Snow Light Snow
1:50 PM 26.6 °F 13.8 °F 21.2 °F 80% 29.58 in 2.0 mi North 17.3 mph - N/A Snow Light Snow
2:50 PM 26.6 °F 14.3 °F 21.2 °F 80% 29.58 in 5.0 mi North 16.1 mph 20.7 mph N/A Snow Light Snow
3:55 PM 26.6 °F 16.8 °F 19.4 °F 74% 29.62 in 10.0 mi NNW 10.4 mph - N/A   Overcast
4:50 PM 26.6 °F 14.7 °F 17.6 °F 69% 29.63 in 10.0 mi NNW 15.0 mph 20.7 mph N/A   Overcast
5:50 PM 26.6 °F 16.8 °F 21.2 °F 80% 29.66 in 1.8 mi NNW 10.4 mph - N/A Snow Light Snow
6:50 PM 24.8 °F 16.1 °F 19.4 °F 80% 29.68 in 5.0 mi NNW 8.1 mph - N/A Snow Light Snow
7:50 PM 24.8 °F 15.3 °F 19.4 °F 80% 29.70 in 10.0 mi NNW 9.2 mph - N/A Snow Light Snow
8:50 PM 24.8 °F 14.0 °F 17.6 °F 74% 29.71 in 10.0 mi NNW 11.5 mph - N/A   Overcast
9:50 PM 24.8 °F 14.0 °F 17.6 °F 74% 29.72 in 10.0 mi NNW 11.5 mph - N/A   Overcast
10:17 PM 23.9 °F 12.9 °F 17.6 °F 77% 29.72 in 10.0 mi NNW 11.5 mph 18.4 mph N/A   Overcast
10:36 PM 23.9 °F 12.9 °F 18.0 °F 78% 29.72 in 7.0 mi NNW 11.5 mph - N/A Snow Light Snow
10:57 PM 23.7 °F 14.0 °F 18.3 °F 80% 29.73 in 10.0 mi NNW 9.2 mph 17.3 mph N/A Snow Light Snow
11:17 PM 23.4 °F 12.8 °F 18.5 °F 82% 29.73 in 10.0 mi NW 10.4 mph - N/A Snow Light Snow
11:37 PM 23.0 °F 13.1 °F 18.5 °F 83% 29.73 in 7.0 mi NW 9.2 mph - N/A Snow Light Snow
11:57 PM 22.6 °F 13.4 °F 18.1 °F 83% 29.73 in 7.0 mi NNW 8.1 mph - N/A Snow Light Snow